铱星星座 130星 (IRIDIUM 130)

导读

IRIDIUM 130(铱星130)是美国铱星系统的第二代通信卫星,于2017年12月23日发射升空。作为全球低轨卫星通信网络的重要组成部分,它运行在近地轨道,为全球提供语音通话、数据传输等卫星通信服务。铱星系统依托均匀分布的卫星星座,实现了对地球表面的全覆盖,能支撑偏远地区、海洋等场景的通信需求,铱星130的入轨助力第二代铱星系统完成组网升级,延长系统整体服务能力。

基本信息
目录编号:
43073
目录名称:
IRIDIUM 130
国际标识:
2017-083D
轨道中心:
EARTH
卫星名称:
铱星星座 130星
卫星全名:
铱星星座 130星 (IRIDIUM 130)
卫星状态:
在轨 (已飞行3093 天)
发射日期:
2017-12-23 UTC
国别 :
美国 (US)
星等 :
--
轨道信息
数据来源 国际轨道数据 AOE轨道数据
星历时间 2026-06-12T11:50:19+0800
16小时前
查看轨道信息
2026-06-12T06:00:00+0800
22小时前
查看轨道信息
半长轴 7155.807km 7155.796km
偏心率 0.0001843 0.0001738
轨道倾角 86.397° 86.396°
近地点辐角 89.589° 88.256°
升交点赤经 324.379° 324.481°
平近点角 270.552° 96.605°
近地点 776.351km 776.415km
远地点 778.989km 778.903km
周期 100.403分钟 100.403分钟
每日圈数 14.34217 14.342204
详细信息
平衡模式:
三轴稳定
覆盖范围:
全球
运营商:
铱星通信公司
运营商所在国:
美国
制造商(研发单位):
阿莱尼亚宇航公司
制造商所在国:
意大利
使用方式:
暂无
卫星简介
铱星(Iridium)是由共66个运作中的通信卫星组成的卫星通信系统。这个系统原本规划77个通信卫星,所以用原子序数为77的铱元素来命名。铱卫星允许人们使用手持型电子设备进行全球性的语音及数据通讯。该卫星仍在工作。
2D轨道图
3D轨道图
轨道高度分析图
轨道倾角分析图
轨道综合分析图
查看轨道综合分析图